CAPE
0 0 0 0 0 0 0 0 0 0 0 0 0 525 642 496 458 624 1245 1198 1275 1274 1262 923 838 1383 856 291 1890 2474 1691 1589 864 684 601 1 0 0 0 0 0 0 0 0 0 0 5 35 337 513 611 669 703 724 770 817 934 1179 1386 1452 1412 1319 1276 1360 1228 1040 882 952 911 1085 1133 1168 1113 1023 994 1171 1479 1712 2030 2382 2440 2594 2676 3332 3002 3097
0 0 0 0 0 0 0 0 0 0 0 0 0 267 564 398 373 605 1129 1132 1162 972 801 780 770 1336 1311 1368 1708 1739 1534 1481 834 803 663 410 4 0 0 0 0 0 0 0 0 0 0 62 134 175 248 591 672 643 688 705 914 1111 1237 1226 1174 1203 1365 1366 1122 1091 934 971 1115 1433 1423 1396 1324 1350 1387 1327 1334 1572 1849 2278 2367 2664 2848 3261 2897 3297
0 0 0 0 0 0 0 0 0 0 0 0 0 62 242 292 911 988 1119 1015 930 773 746 701 545 1106 1170 1066 1265 1498 1681 1309 788 1159 1278 1058 530 98 0 0 0 0 0 0 0 0 4 43 46 70 211 540 616 617 659 648 856 1055 1106 1129 1061 1198 1300 1364 1237 1191 1124 1197 1499 1607 1625 1580 1620 1790 1696 1583 1547 1771 2131 2466 2337 2649 2836 3045 2875 2952
0 0 0 0 0 0 0 1 0 0 0 0 0 34 83 576 666 614 1023 907 844 685 438 690 538 718 1097 911 957 1063 1204 1173 1018 1199 996 1183 1162 726 498 584 0 0 0 0 0 0 0 9 20 52 135 520 610 630 631 642 761 1020 1056 1066 1048 1166 1297 1386 1398 1436 1267 1297 1465 1538 1732 1798 1974 2027 2378 2204 1951 2162 2486 2615 2530 2574 2740 3030 2846 2782
0 0 0 0 0 0 0 0 6 0 0 0 0 28 235 738 584 539 706 826 811 524 308 634 602 544 478 652 699 770 912 897 1311 688 434 667 1263 1083 484 625 749 0 0 0 0 0 0 1 15 49 180 411 517 547 548 584 784 954 1081 1123 1019 1114 1315 1392 1689 1602 1345 1707 1336 1625 1771 2091 2008 1979 1964 2122 2193 2361 2749 2727 2788 2689 2733 2981 2745 2702
0 0 0 0 0 0 0 0 0 5 4 0 0 70 392 722 680 485 624 839 482 324 504 396 61 294 453 532 554 712 802 590 890 514 358 567 674 1057 810 459 567 333 0 0 0 0 0 0 16 43 98 197 366 430 445 584 683 856 1102 1150 1114 1115 1268 1386 1452 1544 1327 1790 1299 1640 1771 1913 1927 1866 1892 2028 2225 2438 2839 2748 2705 2900 2958 2960 2710 2692
0 0 0 0 0 0 0 0 0 0 10 3 0 30 514 866 615 489 796 523 339 359 324 101 7 0 177 221 581 716 915 554 1041 526 564 541 451 794 980 764 644 859 0 0 0 0 0 0 16 46 75 94 274 367 390 494 586 785 1118 1152 1160 1136 1222 1339 1328 1493 1600 1525 1353 1614 1720 1849 1872 1834 1716 1923 2129 2291 2579 2718 2619 2791 3177 2944 2701 2554
0 0 0 0 0 0 0 0 0 0 9 12 5 175 670 825 597 495 566 419 361 253 248 205 35 0 6 16 323 675 727 547 694 446 553 420 429 600 685 897 876 1134 146 0 0 0 0 0 19 42 54 60 68 219 306 290 243 731 1086 1129 1148 1110 1206 1226 1206 1394 1339 1375 1375 1559 1635 1727 1746 1665 1519 1526 2024 2246 2615 2532 2374 2824 3160 2959 2750 2500
0 0 0 0 0 0 0 0 0 0 3 21 9 591 865 781 595 473 438 264 212 254 138 6 16 4 46 252 31 269 564 683 514 796 696 426 469 444 497 1024 1240 1175 465 3 0 0 0 0 8 22 34 48 54 38 53 297 291 668 994 1054 1027 1034 1104 1067 1168 1214 1206 1228 1349 1527 1556 1614 1638 1516 1299 1452 1807 2149 2628 2498 2426 2826 3074 2961 2882 2654
0 0 0 0 0 0 0 0 0 0 1 6 267 402 672 673 690 467 298 226 264 228 131 64 2 9 7 242 158 168 107 478 531 800 760 516 609 549 500 949 1243 916 887 1022 0 0 0 0 7 17 25 46 67 74 99 411 363 630 905 901 891 1051 1080 945 1357 1284 1185 1398 1362 1465 1446 1499 1526 1663 1509 1556 1572 1986 2408 2479 2454 2759 2892 2929 2911 2764
0 0 0 0 0 0 0 0 0 0 0 10 262 340 450 603 558 368 293 254 44 180 171 107 9 38 4 143 301 200 8 23 526 919 1146 867 702 664 793 1104 1168 1204 712 1250 374 0 0 0 8 15 38 58 73 114 146 462 439 616 984 853 823 960 1063 990 1538 1204 1255 1481 1348 1475 1370 1374 1457 1696 1626 1640 1487 1933 2260 2240 2380 2675 2765 2774 2838 2741
0 0 0 0 0 0 0 0 0 0 0 18 26 10 184 205 182 251 94 3 3 3 4 208 203 59 0 12 151 297 4 394 785 802 1013 1097 817 844 982 1335 1086 852 1170 1526 558 0 0 0 10 46 54 81 86 145 196 516 589 563 1000 1013 923 952 1026 958 1606 1175 1266 1508 1311 1638 1461 1436 1517 1823 1741 1626 1518 1874 2170 2106 2228 2486 2616 2628 2672 2637
0 0 0 0 0 0 0 0 0 0 0 7 24 14 4 26 0 2 10 0 0 0 0 139 213 45 208 224 6 298 273 413 841 876 1054 1208 1028 1027 1199 1236 892 741 1504 1479 1038 5 0 0 30 70 90 102 100 163 230 632 655 603 805 1136 1002 1078 1162 811 1704 1213 1192 1530 1425 1472 1612 1586 1670 1934 1800 1727 1642 1848 2046 2267 2174 2311 2384 2458 2541 2559
0 0 0 0 0 0 0 0 0 0 0 4 9 16 0 0 0 0 5 4 0 156 188 159 222 412 310 143 386 287 325 486 844 1337 1523 1446 1249 1182 1178 978 989 1652 1867 1655 1302 273 0 0 24 60 93 117 121 170 299 717 770 644 744 1165 1033 1254 1306 886 1773 1316 1243 1494 1530 1432 1722 1490 1849 1760 1741 1571 1717 1808 2062 2324 2193 2306 2284 2322 2381 2540
0 0 0 0 0 0 0 0 0 0 0 0 20 11 0 0 0 0 12 2 2 343 294 285 164 207 349 210 289 585 654 828 1029 999 1167 1448 1602 1631 1210 1212 1666 1425 1671 1635 899 910 78 0 6 34 55 94 124 275 470 796 831 701 809 1114 1013 1337 1470 972 1712 1413 1472 1408 1628 1530 1527 1811 1588 1533 1816 1686 1909 2049 2209 2327 2218 2358 2344 2201 2274 2473
0 0 0 0 0 0 0 0 0 0 0 17 28 5 0 1 0 0 21 29 281 304 291 231 113 283 298 221 499 628 679 720 905 936 934 841 1345 1225 1402 1544 1586 1354 1355 1447 863 589 1017 1155 278 10 30 52 109 214 628 876 895 786 947 1165 916 1173 1686 1152 1617 1519 1682 1543 1681 1650 1483 1823 1544 1723 1848 1804 2287 2314 2295 2277 2192 2390 2565 2278 2353 2348
0 0 0 0 0 0 1 2 0 0 5 33 18 9 4 1 0 3 2 80 261 191 214 165 232 272 227 120 424 540 537 586 650 792 935 846 973 1044 960 920 935 913 1166 1403 1040 516 978 2074 1356 1246 259 57 108 246 746 922 967 876 1081 1312 987 931 1778 1378 1286 1770 1701 1784 1788 1783 1581 1746 1825 1995 1811 1860 2209 2416 2414 2449 2178 2393 2733 2466 2590 2287
0 0 0 0 0 0 0 13 14 0 0 2 21 13 6 2 2 11 9 232 219 194 220 238 210 178 319 309 267 507 466 551 610 676 779 945 986 1076 912 907 948 1001 1232 1242 1134 960 1484 1870 1218 1361 1207 826 505 197 753 983 1031 954 1113 1440 1209 1004 1768 1700 1284 1790 1792 1865 1906 1922 1748 1655 2054 2020 1838 1865 1990 2422 2514 2586 2488 2428 2675 2552 2752 2468
0 0 0 0 0 6 30 11 5 1 0 0 5 5 10 21 11 32 3 19 164 141 204 208 226 178 277 275 328 474 407 457 509 432 527 807 828 1008 1047 1017 1034 1042 1016 1155 1450 1216 1786 1762 1358 1322 1312 1243 1286 1316 1056 1007 1080 1081 1042 1458 1434 1170 1584 1963 1513 1598 1879 1934 1907 1928 1792 1688 2058 1966 1971 2006 1880 1990 2184 2292 2667 2565 2731 2635 2654 2719
0 1 2 0 0 0 23 20 16 1 0 0 0 14 5 0 7 14 11 0 180 219 158 200 244 245 187 343 324 418 506 417 381 406 535 491 701 740 758 829 821 836 880 1238 1428 1498 1229 1771 1629 1161 1024 1086 1408 1462 1421 1298 1223 1322 1134 1462 1573 1340 1460 2044 1940 1828 1900 1911 1967 1951 1851 1803 1956 2137 1947 1969 2028 1905 2015 2061 2214 2545 2613 2755 2627 2771
0 0 3 4 0 2 20 27 26 0 0 0 10 21 0 13 18 13 14 43 240 244 180 106 192 230 182 104 376 394 355 231 315 366 252 494 636 621 652 726 762 858 865 1150 1070 1117 1144 1580 1443 1172 1361 1308 1652 1705 1235 1255 1473 1732 1741 1800 2040 1693 1737 2166 2356 2230 2116 2062 1949 1964 1918 1861 1934 2061 2040 1942 1949 1951 1904 1900 1899 1961 2304 2625 2724 2667
3 0 3 5 0 8 33 32 31 14 2 0 3 31 32 8 17 20 32 168 309 189 152 17 23 160 144 128 169 203 192 219 212 56 389 46 350 404 612 692 722 860 930 1077 1172 1254 1254 1518 1609 1529 1667 1503 1299 1173 1111 1290 1608 1948 1899 1826 2010 1851 1748 2024 2309 2508 2461 2362 2144 1926 1856 1848 1925 1992 2016 1990 1912 1882 1867 1818 1753 1700 1731 1921 2088 2490
10 8 2 0 0 5 8 26 39 15 9 1 0 44 36 23 10 11 16 310 282 223 191 109 178 132 254 200 296 114 124 108 19 0 0 89 498 556 539 522 672 842 870 966 1069 1093 1331 1355 1322 1274 1493 1499 1401 1363 1605 1710 1626 1988 2047 1927 2032 2047 1854 1932 2132 2467 2641 2556 2465 2228 1953 1767 1826 1968 2007 1945 1900 1884 1854 1750 1596 1598 1578 1569 1490 2076
459 14 1 0 0 1 6 29 50 29 9 4 36 56 37 21 30 34 40 314 272 286 206 191 208 137 128 140 224 101 2 0 0 0 0 21 271 451 356 440 670 732 738 794 816 1063 1106 923 1063 1224 1310 1392 1401 1396 1546 1553 1470 1800 2162 2168 2169 2195 2075 2000 2091 2221 2590 2628 2541 2458 2288 2068 1772 1775 1954 1976 1858 1791 1821 1831 1664 1388 1442 1406 1465 1532
56 33 29 21 14 6 0 0 0 1 0 7 50 44 23 12 87 442 455 383 292 250 200 213 170 138 48 132 16 104 28 0 0 0 0 0 0 265 134 34 446 519 619 694 698 938 1110 1058 995 1084 1112 1256 1214 1352 1150 836 1015 862 1546 1692 1644 2134 2428 2179 2006 1927 2382 2619 2517 2338 2267 2092 1948 1812 1723 1803 1886 1811 1722 1736 1696 1359 1218 1213 1371 1514
31 24 25 20 4 0 0 0 0 0 14 30 27 22 15 33 321 484 400 282 287 293 264 169 205 123 131 195 106 86 220 0 0 0 0 0 0 0 241 385 347 526 582 649 675 711 690 918 848 902 944 1016 1088 1011 1003 1048 1294 1349 1385 1469 1229 1227 1603 2000 2074 2038 2236 2381 2417 2432 2246 2037 1918 1866 1861 1698 1618 1719 1698 1665 1688 1568 982 1116 1075 1221
31 33 16 19 6 0 0 0 0 0 0 18 20 1 0 62 256 306 280 242 267 292 257 90 204 137 81 28 4 60 7 0 0 0 0 0 39 40 16 308 421 528 556 584 580 612 660 635 742 729 920 1010 1102 1039 1125 1223 1355 1306 1331 1309 1311 1436 1085 1103 1512 1935 2121 2153 2144 1964 1938 2007 1759 1709 1767 1595 1527 1554 1601 1605 1535 1515 1356 905 1030 976
46 47 31 8 2 0 0 0 0 0 0 4 6 1 0 92 187 238 243 235 319 257 245 198 38 71 32 2 5 5 0 0 0 0 0 0 0 62 96 49 271 411 538 592 552 524 606 620 704 861 870 766 1011 995 1069 1132 1135 1179 1155 1154 1340 1264 1216 1093 1147 1274 1618 1788 1818 1827 1764 1799 1584 1470 1636 1653 1586 1488 1566 1520 1558 1412 1283 1030 883 766
51 44 32 13 2 0 0 0 0 0 0 11 21 4 0 0 2 45 213 275 315 262 196 214 167 84 63 12 6 3 21 0 0 0 0 0 0 100 116 189 240 293 413 482 516 593 476 594 627 629 668 644 581 674 754 800 904 1210 1223 1149 1170 1098 1124 1072 1044 1139 1098 1221 1313 1332 1129 1046 1161 1116 1226 1361 1505 1563 1579 1588 1381 1399 1260 1019 871 890
30 32 20 25 4 0 0 0 0 0 0 2 2 0 96 113 168 187 275 228 160 174 177 204 157 99 41 41 10 0 3 2 0 0 0 0 0 0 79 228 271 314 337 361 478 512 504 431 509 499 519 518 494 411 566 740 816 1041 1069 1167 1173 1127 1017 1081 1096 1048 1245 1305 1218 1446 1256 1135 1360 1018 1227 1232 1066 1090 1312 1396 1386 1209 1150 1063 813 753
19 21 12 32 17 6 1 0 0 0 0 0 0 0 108 404 473 410 374 315 279 232 197 214 150 82 0 0 0 45 0 0 0 0 0 0 0 0 0 236 259 261 358 387 445 448 382 322 306 343 412 414 451 407 314 330 479 557 651 862 906 834 1031 1312 1087 1193 1386 1423 1382 1467 1640 1603 1345 1266 1091 848 797 979 990 969 1146 1268 1043 1154 1060 1072
2 10 10 17 47 17 10 9 4 1 0 0 0 9 131 492 514 480 462 399 356 366 274 253 185 146 118 128 121 11 0 0 0 0 0 0 0 0 0 55 218 244 272 300 344 360 371 374 355 352 359 308 283 328 399 421 148 112 243 560 710 699 675 983 1076 1085 962 906 1036 1100 1282 1337 1476 1556 1444 1318 1319 1579 1447 1413 1176 1285 1135 1085 886 928
1 12 23 24 6 17 23 15 8 3 0 0 0 0 0 174 509 520 468 405 361 387 413 354 347 226 139 110 97 0 0 0 0 0 0 0 0 0 0 0 21 169 251 174 182 173 162 182 216 247 258 301 303 344 381 375 375 382 374 482 514 502 577 638 675 759 878 892 828 773 866 1030 1110 1186 1270 1488 1558 1912 1997 1932 1900 1628 1442 1327 1200 976
9 10 17 32 26 25 18 12 8 0 0 0 0 0 0 434 605 620 510 417 380 391 389 360 249 186 146 92 106 65 0 0 0 0 0 0 0 0 0 0 63 150 197 160 157 165 151 172 129 138 164 210 248 276 347 377 381 404 370 370 381 408 494 551 587 498 588 700 717 736 730 794 897 1022 1121 1203 1264 1335 1820 2142 1915 1730 1634 1678 1687 1499
6 9 20 16 11 21 22 21 10 1 0 18 32 30 27 646 634 649 550 424 425 404 349 281 295 222 189 182 192 186 132 0 0 0 0 0 0 0 0 0 0 0 109 105 43 0 41 119 106 0 0 0 92 119 155 186 248 254 270 301 334 344 427 495 506 582 549 586 727 748 741 717 762 854 967 1018 1096 1232 1280 1303 1270 1371 1486 1602 1658 1668
9 14 14 31 38 28 20 17 10 18 22 227 314 432 565 708 684 657 592 501 417 428 371 296 320 249 247 244 253 236 0 0 0 0 0 0 0 0 0 0 0 0 0 0 0 0 0 0 22 20 0 0 0 0 0 31 0 0 0 34 129 228 288 360 416 462 486 582 652 736 794 794 772 755 808 871 887 996 1089 1088 1124 1154 1240 1580 1541 1555
0 0 4 26 29 34 23 11 7 0 13 27 142 296 555 709 686 610 594 511 536 390 311 318 277 254 256 264 263 183 0 0 0 0 0 0 0 0 0 0 0 0 0 0 0 0 0 0 0 0 0 0 0 0 0 0 0 0 0 0 0 0 0 174 275 364 408 434 464 503 579 638 626 656 662 787 682 643 871 875 903 942 1202 1183 1222 1404
0 0 0 0 0 0 0 0 0 0 0 8 10 0 144 329 515 498 493 550 494 329 278 314 337 296 283 291 256 160 0 0 0 0 0 0 0 0 0 0 0 0 0 0 0 0 0 0 0 0 0 0 0 0 0 0 0 0 0 0 0 0 0 0 0 86 215 344 408 476 486 493 521 515 509 506 630 724 763 744 731 725 1035 998 1091 1156
0 0 0 0 0 0 0 0 0 0 0 0 0 0 160 454 478 395 393 374 353 334 310 328 299 302 301 280 188 139 0 0 0 0 0 0 0 0 0 0 0 0 0 0 0 0 0 0 0 0 0 0 0 0 0 0 0 0 0 0 0 0 0 0 0 0 0 48 156 194 251 324 401 461 480 473 474 489 550 573 628 656 672 818 926 1009
0 0 0 0 0 0 0 0 0 0 0 0 0 0 305 423 304 281 304 418 372 359 347 277 264 234 256 228 74 0 0 0 0 0 0 0 0 0 0 0 0 0 0 0 0 0 0 0 0 0 0 0 0 0 0 0 0 0 0 0 0 0 0 0 0 0 0 0 0 98 144 164 182 217 271 347 419 429 412 412 402 468 564 666 760 929
0 0 0 0 0 3 0 0 0 0 0 0 0 0 0 0 0 0 0 326 371 412 334 308 266 270 252 236 147 0 0 0 0 0 0 0 0 0 0 0 0 0 0 0 0 0 0 0 0 0 0 0 0 0 0 0 0 0 0 0 0 0 0 0 0 0 0 0 0 0 0 0 0 56 124 169 229 306 362 390 407 416 438 528 620 762
0 0 0 0 0 0 0 0 0 0 0 0 0 0 0 0 0 0 0 117 331 456 350 335 340 366 349 316 248 212 0 0 0 0 0 0 0 0 0 0 0 0 0 0 0 0 0 0 0 0 0 0 0 0 0 0 0 0 0 0 0 0 0 0 0 0 0 0 0 0 0 0 0 0 29 82 102 142 162 188 235 292 331 392 459 591
0 0 0 0 0 0 0 0 0 0 0 0 0 0 0 0 0 0 0 0 19 320 351 393 377 373 350 319 244 151 0 0 0 0 0 0 0 0 0 0 0 0 0 0 0 0 0 0 0 0 0 0 0 0 0 0 0 0 0 0 0 0 0 0 0 0 0 0 0 0 0 0 0 0 0 0 0 2 70 98 109 153 220 285 341 374
0 0 39 1 0 0 0 0 0 0 0 0 0 0 3 32 0 2 0 0 294 342 263 310 354 310 358 308 214 0 0 0 0 0 0 0 0 0 0 0 0 0 0 0 0 0 0 0 0 0 0 0 0 0 0 0 0 0 0 0 0 0 0 0 0 0 0 0 0 0 0 0 0 0 0 0 0 0 0 0 5 59 82 134 209 252
0 0 49 3 0 0 0 0 0 0 6 32 29 52 77 35 0 0 0 0 270 327 141 38 0 0 66 74 0 0 0 0 0 0 0 0 0 0 0 0 0 0 0 0 0 0 0 0 0 0 0 0 0 0 0 0 0 0 0 0 0 0 0 0 0 0 0 0 0 0 0 0 0 0 0 0 0 0 0 0 8 34 20 42 20 0
0 0 0 0 8 114 0 0 0 34 18 14 1 0 0 0 0 0 0 0 0 0 0 0 0 0 0 0 0 0 0 0 0 0 0 0 0 0 0 0 0 0 0 0 0 0 0 0 0 0 0 0 0 0 0 0 0 0 0 0 0 0 0 0 0 0 0 0 0 0 0 0 0 0 0 0 0 0 0 0 0 0 1 0 0 0
0 0 0 0 0 0 48 0 22 50 19 0 0 0 0 0 0 0 0 0 0 0 0 0 0 0 0 0 0 0 0 0 0 0 0 0 0 0 0 0 0 0 0 0 0 0 0 0 0 0 0 0 0 0 0 0 0 0 0 0 0 0 0 0 0 0 0 0 0 0 0 0 0 0 0 0 0 0 0 0 0 0 0 0 0 0
12 0 0 0 0 0 0 0 0 6 0 0 0 0 0 0 0 0 0 0 0 0 0 0 0 0 0 0 0 0 0 0 0 0 0 0 0 0 0 0 0 0 0 0 0 0 0 0 0 0 0 0 0 0 0 0 0 0 0 0 0 0 0 0 0 0 0 0 0 0 0 0 0 0 0 0 0 0 0 0 0 0 0 0 0 0
0 9 0 0 0 0 0 0 0 0 0 0 0 0 0 0 0 0 0 0 0 0 0 0 0 0 0 0 0 0 0 0 0 0 0 0 0 0 0 0 0 0 0 0 0 0 0 0 0 0 0 0 0 0 0 0 0 0 0 0 0 0 0 0 0 0 0 0 0 0 0 0 0 0 0 0 0 0 0 0 0 0 0 0 0 0
0 0 0 0 0 0 2 5 4 0 0 0 0 0 0 0 0 0 0 0 0 0 0 0 0 0 0 0 0 0 0 0 0 0 0 0 0 0 0 0 0 0 0 0 0 0 0 0 0 0 0 0 0 0 0 0 0 0 0 0 0 0 0 0 0 0 0 0 0 0 0 0 0 0 0 0 0 0 0 19 0 0 0 0 0 0
1 34 0 0 0 0 0 0 0 0 0 0 0 0 0 0 0 0 0 0 0 0 0 0 0 0 0 0 0 0 0 0 0 0 0 0 0 0 0 0 0 0 0 0 0 0 0 0 0 0 0 0 0 0 0 0 0 0 0 0 0 0 0 0 1 1 0 0 0 0 0 0 0 0 0 0 0 0 1 0 0 0 0 0 0 0
Wind_Speed
nan nan nan nan nan nan nan nan nan nan nan nan nan 17 10 9 11 17 14 10 9 11 9 10 14 12 9 5 8 16 22 24 21 20 19 nan nan nan nan nan nan nan nan nan nan nan nan nan 4 3 4 4 4 4 4 3 2 4 7 9 11 10 6 4 4 6 7 9 10 12 12 12 12 13 13 14 15 16 17 17 16 16 17 17 17 18
nan nan nan nan nan nan nan nan nan nan nan nan nan 19 15 13 14 14 16 12 16 15 10 14 16 15 12 10 16 18 21 22 20 20 21 18 nan nan nan nan nan nan nan nan nan nan nan nan 5 4 4 6 6 5 5 3 1 4 5 8 10 11 7 4 4 4 6 8 10 10 12 13 13 14 14 14 15 16 17 16 16 16 16 16 17 18
nan nan nan nan nan nan nan nan nan nan nan nan nan nan 19 23 26 24 19 20 20 17 14 17 18 16 13 14 21 22 19 23 25 19 18 20 19 nan nan nan nan nan nan nan nan nan nan nan nan nan 5 5 6 5 5 4 3 3 5 7 10 10 10 9 5 3 6 8 10 10 11 12 12 14 14 13 13 15 16 15 15 15 15 15 16 17
nan nan nan nan nan nan nan nan nan nan nan nan nan nan nan 16 15 12 13 19 16 18 19 16 16 15 17 20 23 25 22 25 27 24 22 24 22 20 21 16 nan nan nan nan nan nan nan nan nan nan 5 5 6 6 7 4 3 3 4 5 7 9 10 11 10 8 7 6 8 8 7 9 9 11 12 11 10 13 14 15 14 14 14 15 16 17
nan nan nan nan nan nan nan nan nan nan nan nan nan nan 16 7 6 13 10 11 14 21 15 18 17 14 12 14 15 23 27 27 29 30 26 23 21 19 20 18 16 nan nan nan nan nan nan nan nan nan 5 6 6 6 5 4 3 3 1 3 3 6 7 10 11 11 11 8 8 7 8 9 10 10 9 8 9 12 14 14 15 14 13 15 16 17
nan nan nan nan nan nan nan nan nan nan nan nan nan nan 6 9 13 24 18 14 12 15 12 14 nan 15 14 14 14 22 27 24 30 28 24 22 21 22 21 20 20 17 nan nan nan nan nan nan nan nan nan 6 7 6 5 4 3 3 2 2 2 4 6 7 10 11 12 10 7 6 5 8 10 10 10 10 10 11 13 15 16 15 14 14 15 16
nan nan nan nan nan nan nan nan nan nan nan nan nan nan 10 13 15 15 14 14 14 10 6 9 nan nan 16 10 10 16 24 29 31 29 23 22 22 21 20 19 19 21 nan nan nan nan nan nan nan nan nan nan 7 6 6 5 4 4 3 2 1 2 4 6 8 9 10 10 9 7 7 8 10 10 13 12 11 10 13 14 16 17 16 14 14 15
nan nan nan nan nan nan nan nan nan nan nan nan nan 18 19 15 15 10 14 15 14 18 20 9 nan nan nan nan 10 9 14 24 30 27 26 24 22 20 20 20 19 20 18 nan nan nan nan nan nan nan nan nan nan 8 8 6 6 5 4 3 2 0 3 5 6 6 7 7 8 8 9 9 9 11 12 12 13 12 12 12 15 16 17 16 15 14
nan nan nan nan nan nan nan nan nan nan nan nan nan 20 15 14 11 11 18 20 20 17 13 nan nan nan nan 13 nan 9 7 11 20 24 23 22 20 18 18 20 18 19 21 nan nan nan nan nan nan nan nan nan nan nan nan 7 6 6 5 4 3 1 2 4 4 4 5 6 6 7 9 9 11 11 11 11 13 12 12 12 14 15 17 17 17 15
nan nan nan nan nan nan nan nan nan nan nan nan 28 22 21 20 17 18 19 21 20 20 11 nan nan nan nan 10 7 6 5 2 7 16 22 20 19 19 19 19 18 20 20 20 nan nan nan nan nan nan nan nan nan nan nan 9 8 8 7 5 4 2 1 2 3 3 4 5 6 7 9 8 10 12 12 11 12 12 12 12 13 14 15 17 17 16
nan nan nan nan nan nan nan nan nan nan nan nan 23 24 20 19 18 21 23 22 nan 18 12 8 nan nan nan 6 3 4 nan nan 5 13 21 22 21 21 21 20 20 20 21 20 17 nan nan nan nan nan nan nan nan 11 10 9 8 9 8 6 5 3 3 3 2 3 3 5 6 6 7 8 9 11 11 11 12 11 12 11 12 13 14 15 16 15
nan nan nan nan nan nan nan nan nan nan nan nan nan nan 22 21 24 25 nan nan nan nan nan 9 9 nan nan nan 6 5 nan 3 3 5 10 20 19 18 20 23 23 22 20 21 19 nan nan nan nan nan nan nan nan 11 10 9 10 9 9 8 6 7 5 5 4 4 4 5 6 7 7 7 9 10 11 10 11 10 10 11 11 12 12 14 15 15
nan nan nan nan nan nan nan nan nan nan nan nan nan nan nan nan nan nan nan nan nan nan nan 9 12 nan 21 17 nan 7 7 8 6 3 4 14 20 21 21 23 24 24 22 21 22 nan nan nan nan nan nan 10 nan 11 10 9 10 9 9 8 8 7 7 6 6 4 5 6 6 7 8 8 8 9 9 10 11 10 10 10 10 10 11 12 13 14
nan nan nan nan nan nan nan nan nan nan nan nan nan nan nan nan nan nan nan nan nan 26 21 15 20 21 18 20 24 17 15 15 15 12 9 11 18 23 25 26 28 28 26 26 27 19 nan nan nan nan nan 9 10 11 10 10 11 10 9 9 8 7 7 7 6 5 5 6 6 8 9 8 8 9 9 9 9 10 10 9 9 8 9 10 11 11
nan nan nan nan nan nan nan nan nan nan nan nan nan nan nan nan nan nan nan nan nan 19 18 21 21 17 17 19 27 24 25 25 24 23 19 16 22 30 33 31 29 33 35 35 35 34 nan nan nan nan nan nan 11 12 11 11 11 11 10 9 8 9 8 7 6 6 6 6 7 8 9 9 10 7 8 8 9 9 9 10 8 8 8 8 10 9
nan nan nan nan nan nan nan nan nan nan nan nan nan nan nan nan nan nan nan nan 16 20 26 27 25 23 21 23 25 20 21 23 23 20 15 12 13 25 34 31 33 35 35 33 31 31 35 29 20 nan nan nan 10 13 13 12 13 12 10 9 8 9 8 6 6 5 5 6 8 9 8 9 9 9 9 9 10 9 9 8 7 7 7 7 7 9
nan nan nan nan nan nan nan nan nan nan nan nan nan nan nan nan nan nan nan nan 19 26 26 27 26 25 24 25 26 20 20 19 19 17 16 13 11 19 28 32 35 37 35 31 29 25 28 26 25 23 19 nan 11 13 14 14 13 12 11 11 10 9 9 6 5 5 5 7 7 8 8 10 10 9 8 8 9 8 9 8 7 6 6 5 5 6
nan nan nan nan nan nan nan nan nan nan nan nan nan nan nan nan nan nan nan 18 23 22 23 24 25 23 20 23 18 16 18 18 21 21 22 22 15 14 23 28 32 35 35 30 27 26 22 20 24 26 25 20 16 14 13 14 13 12 11 10 10 10 9 6 5 5 5 6 7 7 8 9 10 10 9 9 9 10 10 10 8 7 5 4 4 4
nan nan nan nan nan nan nan nan nan nan nan nan nan nan nan nan nan nan nan nan 24 24 21 24 28 25 23 21 16 13 15 19 18 18 19 21 21 19 21 28 31 30 31 30 28 26 25 25 24 24 22 21 21 22 18 13 13 12 11 10 10 10 9 7 5 5 6 7 8 8 8 9 11 11 11 11 10 11 10 10 10 7 5 4 4 4
nan nan nan nan nan nan nan nan nan nan nan nan nan nan nan nan nan nan nan nan 31 25 22 21 28 22 21 19 16 12 14 17 15 15 17 19 21 21 21 25 29 31 31 32 31 31 31 28 24 23 24 25 25 24 24 21 16 12 11 10 9 10 11 9 7 6 5 6 8 9 10 10 11 12 12 11 11 10 10 11 11 9 7 4 5 5
nan nan nan nan nan nan nan nan nan nan nan nan nan nan nan nan nan nan nan nan 31 27 23 24 21 19 20 22 20 17 18 20 17 17 18 19 20 23 23 22 27 31 32 34 33 34 33 30 29 28 30 27 26 26 25 24 22 18 16 15 16 17 18 17 14 9 7 8 8 10 9 9 11 11 13 13 12 11 11 11 11 10 8 8 6 5
nan nan nan nan nan nan nan nan nan nan nan nan nan nan nan nan nan nan nan 36 34 32 26 nan nan 24 26 27 28 27 22 25 24 nan 23 nan 21 22 23 24 25 27 30 33 34 34 34 35 32 31 28 25 26 26 25 24 23 19 17 17 18 17 16 15 15 15 12 11 9 9 10 10 10 11 12 12 13 12 13 12 11 10 10 8 7 6
nan nan nan nan nan nan nan nan nan nan nan nan nan nan nan nan nan nan nan 36 39 37 36 31 31 29 32 30 24 20 18 23 nan nan nan nan 21 20 21 24 23 23 27 33 36 34 34 35 35 34 32 27 25 25 25 24 24 22 23 24 22 20 19 20 20 19 16 15 14 14 14 11 10 11 10 10 12 12 13 13 13 12 10 9 8 7
31 nan nan nan nan nan nan nan nan nan nan nan nan nan nan nan nan nan nan 34 38 36 36 31 33 31 30 26 22 22 nan nan nan nan nan nan 25 23 23 24 25 24 25 30 34 32 31 33 33 35 33 31 29 29 29 29 28 29 30 30 28 21 20 22 21 22 21 20 19 19 19 16 13 10 11 11 12 12 12 13 14 13 12 10 9 7
nan nan nan nan nan nan nan nan nan nan nan nan nan nan nan nan nan 43 43 41 40 35 33 33 30 29 nan 27 nan 23 nan nan nan nan nan nan nan 25 24 nan 24 25 24 26 29 30 29 31 35 36 35 34 32 31 30 30 28 27 25 22 21 24 24 23 23 23 22 20 19 19 20 21 20 16 12 12 14 14 14 13 13 14 12 12 10 8
nan nan nan nan nan nan nan nan nan nan nan nan nan nan nan nan 43 43 41 41 37 35 40 35 37 38 34 29 25 nan 20 nan nan nan nan nan nan nan 24 23 24 26 26 27 30 31 29 25 28 33 34 34 35 35 34 32 30 29 28 29 32 30 24 25 24 23 21 20 22 23 23 25 25 25 24 20 15 14 16 15 14 13 12 12 10 10
nan nan nan nan nan nan nan nan nan nan nan nan nan nan nan nan 52 47 44 45 37 33 38 nan 35 37 nan nan nan nan nan nan nan nan nan nan nan nan nan 26 27 27 27 28 29 30 30 28 27 27 29 29 33 35 36 35 34 33 33 35 34 32 29 27 25 25 24 23 23 24 24 24 25 24 23 23 26 23 19 19 18 13 11 10 10 10
nan nan nan nan nan nan nan nan nan nan nan nan nan nan nan nan 43 47 45 41 38 46 40 35 nan nan nan nan nan nan nan nan nan nan nan nan nan nan nan nan 30 30 29 27 28 29 32 32 30 30 29 29 30 31 32 32 33 32 30 31 29 29 30 29 29 31 30 27 25 24 23 23 25 24 22 21 22 24 24 22 22 20 17 15 11 8
nan nan nan nan nan nan nan nan nan nan nan nan nan nan nan nan nan nan 42 37 42 41 37 34 33 nan nan nan nan nan nan nan nan nan nan nan nan 24 26 27 29 30 29 28 27 28 29 32 30 31 31 31 32 31 29 27 28 28 28 27 28 28 28 28 27 25 24 25 25 24 24 24 25 24 23 22 23 26 27 25 21 18 18 17 15 13
nan nan nan nan nan nan nan nan nan nan nan nan nan nan nan 45 45 44 39 38 42 43 44 40 39 nan nan nan nan nan nan nan nan nan nan nan nan nan nan 27 28 29 30 30 30 30 30 30 31 32 34 35 36 35 32 28 26 26 27 26 27 29 29 28 27 26 24 24 24 24 25 25 25 24 23 23 23 25 27 22 19 16 15 17 19 18
nan nan nan nan nan nan nan nan nan nan nan nan nan nan 54 53 51 49 46 49 52 50 47 45 41 nan nan nan nan nan nan nan nan nan nan nan nan nan nan 27 28 28 30 31 31 33 33 34 34 35 36 34 34 35 35 31 27 26 26 25 26 29 26 25 27 28 30 31 30 28 27 27 26 26 26 25 22 24 25 17 14 16 19 22 24 24
nan nan nan nan nan nan nan nan nan nan nan nan nan nan 52 50 49 46 47 41 46 43 45 45 41 37 36 37 36 nan nan nan nan nan nan nan nan nan nan nan 29 31 32 31 32 33 34 36 36 36 36 34 34 34 34 33 30 28 26 24 25 26 27 26 24 24 26 27 27 27 28 30 31 31 30 28 25 23 21 19 19 21 22 23 24 24
nan nan nan nan nan nan nan nan nan nan nan nan nan nan nan 43 44 46 48 46 47 47 45 40 37 36 37 38 nan nan nan nan nan nan nan nan nan nan nan nan nan 33 33 32 34 34 35 35 35 36 35 34 36 35 34 33 32 30 30 27 24 28 30 29 28 26 24 22 22 23 24 27 30 32 33 33 31 27 23 23 25 26 26 25 25 26
nan nan nan nan nan nan nan nan nan nan nan nan nan nan nan 43 43 45 45 45 45 46 44 45 46 43 42 nan 46 nan nan nan nan nan nan nan nan nan nan nan nan 35 35 34 34 34 34 35 35 36 37 35 35 36 35 35 36 34 33 31 28 28 26 24 24 27 27 23 21 21 23 26 29 31 32 34 34 33 31 29 28 29 30 30 30 29
nan nan nan nan nan nan nan nan nan nan nan nan nan nan nan 43 46 50 49 48 52 57 57 54 51 48 46 48 47 47 47 nan nan nan nan nan nan nan nan nan nan nan 34 35 nan nan nan 36 36 nan nan nan nan 35 36 37 36 35 35 34 33 31 29 27 26 26 27 26 23 22 22 25 29 32 33 34 34 33 31 29 28 28 29 30 30 30
nan nan nan nan nan nan nan nan nan nan nan 31 32 39 41 46 51 59 55 48 49 52 51 49 48 49 50 50 49 48 nan nan nan nan nan nan nan nan nan nan nan nan nan nan nan nan nan nan nan nan nan nan nan nan nan nan nan nan nan nan 34 32 31 31 31 30 29 28 27 26 24 24 27 29 32 32 33 33 32 30 29 28 28 29 29 30
nan nan nan nan nan nan nan nan nan nan nan nan 37 36 34 34 38 45 45 43 46 49 52 49 49 50 51 50 50 50 nan nan nan nan nan nan nan nan nan nan nan nan nan nan nan nan nan nan nan nan nan nan nan nan nan nan nan nan nan nan nan nan nan 33 34 34 33 32 30 29 28 28 29 29 30 31 31 30 30 31 30 29 28 28 28 29
nan nan nan nan nan nan nan nan nan nan nan nan nan nan 36 35 38 41 46 41 39 40 42 43 42 47 50 50 50 49 nan nan nan nan nan nan nan nan nan nan nan nan nan nan nan nan nan nan nan nan nan nan nan nan nan nan nan nan nan nan nan nan nan nan nan nan 34 34 34 32 31 30 29 29 29 29 29 28 28 30 30 30 30 30 29 29
nan nan nan nan nan nan nan nan nan nan nan nan nan nan 36 38 41 39 44 37 35 34 36 38 37 40 44 47 49 50 nan nan nan nan nan nan nan nan nan nan nan nan nan nan nan nan nan nan nan nan nan nan nan nan nan nan nan nan nan nan nan nan nan nan nan nan nan nan 34 34 33 32 31 31 31 31 30 29 30 30 29 28 29 30 30 29
nan nan nan nan nan nan nan nan nan nan nan nan nan nan 35 37 41 44 43 34 34 33 34 36 36 34 36 42 nan nan nan nan nan nan nan nan nan nan nan nan nan nan nan nan nan nan nan nan nan nan nan nan nan nan nan nan nan nan nan nan nan nan nan nan nan nan nan nan nan nan 35 34 33 31 32 31 31 30 31 30 29 28 28 29 29 29
nan nan nan nan nan nan nan nan nan nan nan nan nan nan nan nan nan nan nan 31 35 35 34 36 36 36 37 39 39 nan nan nan nan nan nan nan nan nan nan nan nan nan nan nan nan nan nan nan nan nan nan nan nan nan nan nan nan nan nan nan nan nan nan nan nan nan nan nan nan nan nan nan nan nan 32 32 32 32 32 31 29 28 28 28 28 29
nan nan nan nan nan nan nan nan nan nan nan nan nan nan nan nan nan nan nan 32 34 36 36 38 38 35 36 36 36 37 nan nan nan nan nan nan nan nan nan nan nan nan nan nan nan nan nan nan nan nan nan nan nan nan nan nan nan nan nan nan nan nan nan nan nan nan nan nan nan nan nan nan nan nan nan nan 34 34 34 33 31 30 30 31 31 32
nan nan nan nan nan nan nan nan nan nan nan nan nan nan nan nan nan nan nan nan nan 34 37 37 38 36 40 38 39 42 nan nan nan nan nan nan nan nan nan nan nan nan nan nan nan nan nan nan nan nan nan nan nan nan nan nan nan nan nan nan nan nan nan nan nan nan nan nan nan nan nan nan nan nan nan nan nan nan nan nan 35 34 35 37 38 37
nan nan nan nan nan nan nan nan nan nan nan nan nan nan nan nan nan nan nan nan 30 32 34 35 34 35 39 40 39 nan nan nan nan nan nan nan nan nan nan nan nan nan nan nan nan nan nan nan nan nan nan nan nan nan nan nan nan nan nan nan nan nan nan nan nan nan nan nan nan nan nan nan nan nan nan nan nan nan nan nan nan nan nan 39 39 39
nan nan nan nan nan nan nan nan nan nan nan nan nan nan nan nan nan nan nan nan 32 33 31 nan nan nan nan nan nan nan nan nan nan nan nan nan nan nan nan nan nan nan nan nan nan nan nan nan nan nan nan nan nan nan nan nan nan nan nan nan nan nan nan nan nan nan nan nan nan nan nan nan nan nan nan nan nan nan nan nan nan nan nan nan nan nan
nan nan nan nan nan 21 nan nan nan nan nan nan nan nan nan nan nan nan nan nan nan nan nan nan nan nan nan nan nan nan nan nan nan nan nan nan nan nan nan nan nan nan nan nan nan nan nan nan nan nan nan nan nan nan nan nan nan nan nan nan nan nan nan nan nan nan nan nan nan nan nan nan nan nan nan nan nan nan nan nan nan nan nan nan nan nan
nan nan nan nan nan nan nan nan nan nan nan nan nan nan nan nan nan nan nan nan nan nan nan nan nan nan nan nan nan nan nan nan nan nan nan nan nan nan nan nan nan nan nan nan nan nan nan nan nan nan nan nan nan nan nan nan nan nan nan nan nan nan nan nan nan nan nan nan nan nan nan nan nan nan nan nan nan nan nan nan nan nan nan nan nan nan
nan nan nan nan nan nan nan nan nan nan nan nan nan nan nan nan nan nan nan nan nan nan nan nan nan nan nan nan nan nan nan nan nan nan nan nan nan nan nan nan nan nan nan nan nan nan nan nan nan nan nan nan nan nan nan nan nan nan nan nan nan nan nan nan nan nan nan nan nan nan nan nan nan nan nan nan nan nan nan nan nan nan nan nan nan nan
nan nan nan nan nan nan nan nan nan nan nan nan nan nan nan nan nan nan nan nan nan nan nan nan nan nan nan nan nan nan nan nan nan nan nan nan nan nan nan nan nan nan nan nan nan nan nan nan nan nan nan nan nan nan nan nan nan nan nan nan nan nan nan nan nan nan nan nan nan nan nan nan nan nan nan nan nan nan nan nan nan nan nan nan nan nan
nan nan nan nan nan nan nan nan nan nan nan nan nan nan nan nan nan nan nan nan nan nan nan nan nan nan nan nan nan nan nan nan nan nan nan nan nan nan nan nan nan nan nan nan nan nan nan nan nan nan nan nan nan nan nan nan nan nan nan nan nan nan nan nan nan nan nan nan nan nan nan nan nan nan nan nan nan nan nan nan nan nan nan nan nan nan
nan nan nan nan nan nan nan nan nan nan nan nan nan nan nan nan nan nan nan nan nan nan nan nan nan nan nan nan nan nan nan nan nan nan nan nan nan nan nan nan nan nan nan nan nan nan nan nan nan nan nan nan nan nan nan nan nan nan nan nan nan nan nan nan nan nan nan nan nan nan nan nan nan nan nan nan nan nan nan nan nan nan nan nan nan nan
Wind_Direction
nan nan nan nan nan nan nan nan nan nan nan nan nan 220 221 214 188 203 209 226 251 246 224 230 230 241 260 256 219 223 224 220 214 206 200 nan nan nan nan nan nan nan nan nan nan nan nan nan 261 241 249 239 213 212 214 194 130 114 114 117 114 119 120 105 101 109 113 118 120 118 104 99 91 84 82 84 92 96 100 106 114 121 123 124 118 114
nan nan nan nan nan nan nan nan nan nan nan nan nan 209 205 206 202 210 206 224 223 217 211 218 242 234 244 244 215 217 229 224 224 215 203 204 nan nan nan nan nan nan nan nan nan nan nan nan 264 231 219 233 242 209 225 224 171 141 118 110 114 124 120 101 69 71 88 91 83 88 85 91 84 82 76 78 85 89 92 97 106 116 124 127 122 117
nan nan nan nan nan nan nan nan nan nan nan nan nan nan 212 208 215 207 223 220 207 216 219 227 235 228 248 235 209 205 217 217 219 216 202 204 204 nan nan nan nan nan nan nan nan nan nan nan nan nan 217 238 267 250 242 234 220 163 134 126 125 127 127 120 108 61 64 76 79 78 77 67 78 87 87 83 86 88 88 91 100 112 122 127 125 120
nan nan nan nan nan nan nan nan nan nan nan nan nan nan nan 226 236 196 202 230 213 222 221 238 243 226 212 225 225 205 203 210 216 213 202 205 200 195 204 190 nan nan nan nan nan nan nan nan nan nan 215 226 239 231 224 239 249 181 151 133 128 127 132 127 126 118 109 86 85 95 79 78 79 81 87 92 88 92 94 92 97 109 118 123 124 122
nan nan nan nan nan nan nan nan nan nan nan nan nan nan 193 221 221 250 220 236 237 217 255 246 238 228 236 237 230 212 215 205 209 209 194 200 199 189 195 191 188 nan nan nan nan nan nan nan nan nan 224 219 235 237 237 242 258 184 155 125 110 116 119 123 125 122 132 133 139 141 138 122 123 120 104 99 98 95 98 102 104 103 113 117 121 122
nan nan nan nan nan nan nan nan nan nan nan nan nan nan 198 224 230 230 264 272 221 211 195 258 nan 205 214 229 237 213 215 211 205 206 191 194 197 189 196 192 191 191 nan nan nan nan nan nan nan nan nan 231 230 236 236 253 262 244 197 183 138 117 114 112 119 122 138 135 134 142 123 110 110 104 96 82 81 94 101 100 109 115 113 114 119 121
nan nan nan nan nan nan nan nan nan nan nan nan nan nan 238 254 258 264 270 258 225 218 205 186 nan nan 209 215 221 211 213 212 207 198 192 195 192 189 195 196 191 196 nan nan nan nan nan nan nan nan nan nan 240 227 231 230 242 259 230 235 246 92 97 105 113 124 142 141 133 120 106 102 100 102 109 110 107 99 107 113 110 114 118 118 117 122
nan nan nan nan nan nan nan nan nan nan nan nan nan 230 243 264 284 301 284 253 232 207 216 207 nan nan nan nan 239 213 217 208 202 199 194 197 191 183 192 196 190 197 197 nan nan nan nan nan nan nan nan nan nan 234 232 228 228 249 241 237 239 133 84 101 111 133 139 137 133 126 121 117 114 108 104 107 108 113 116 115 114 118 119 121 123 123
nan nan nan nan nan nan nan nan nan nan nan nan nan 258 258 287 300 274 245 233 225 229 206 nan nan nan nan 202 nan 257 232 199 198 203 207 203 196 185 191 196 186 199 195 nan nan nan nan nan nan nan nan nan nan nan nan 227 226 231 229 232 228 242 75 105 120 139 147 146 137 129 126 124 121 118 113 114 117 118 117 115 118 118 119 121 123 125
nan nan nan nan nan nan nan nan nan nan nan nan 212 215 223 226 225 228 228 238 229 206 188 nan nan nan nan 191 236 230 200 137 205 218 218 213 204 190 191 194 187 197 189 192 nan nan nan nan nan nan nan nan nan nan nan 225 232 229 221 226 232 218 161 154 139 161 165 163 163 145 130 121 126 131 128 125 117 120 118 112 113 117 117 118 124 126
nan nan nan nan nan nan nan nan nan nan nan nan 209 209 224 228 218 209 210 221 nan 198 175 197 nan nan nan 172 199 311 nan nan 231 220 225 222 210 194 191 198 201 202 195 190 202 nan nan nan nan nan nan nan nan 232 235 230 234 229 228 227 226 223 203 191 183 187 180 173 175 153 133 126 131 131 128 127 126 129 127 118 118 117 116 122 120 122
nan nan nan nan nan nan nan nan nan nan nan nan nan nan 216 214 208 207 nan nan nan nan nan 226 208 nan nan nan 186 150 nan 235 273 300 247 234 227 212 203 209 211 208 195 195 204 nan nan nan nan nan nan nan nan 238 237 231 232 230 226 226 222 213 213 199 202 195 188 185 178 172 150 136 138 134 132 124 124 125 120 122 121 125 125 124 123 127
nan nan nan nan nan nan nan nan nan nan nan nan nan nan nan nan nan nan nan nan nan nan nan 246 226 nan 198 195 nan 230 179 211 224 236 260 237 234 225 217 216 217 208 198 198 200 nan nan nan nan nan nan 235 nan 241 241 239 238 232 227 231 229 217 215 213 206 199 194 189 181 178 160 151 153 142 141 137 133 132 129 130 132 137 125 125 125 124
nan nan nan nan nan nan nan nan nan nan nan nan nan nan nan nan nan nan nan nan nan 197 204 235 219 208 198 205 205 216 215 220 218 217 226 228 223 225 221 217 213 211 202 198 196 201 nan nan nan nan nan 239 237 244 246 243 240 232 230 229 234 225 220 222 212 206 198 190 185 183 171 163 163 151 150 151 142 136 138 139 136 135 131 126 121 125
nan nan nan nan nan nan nan nan nan nan nan nan nan nan nan nan nan nan nan nan nan 215 213 212 228 207 218 210 208 202 229 228 222 218 217 224 218 213 217 220 217 214 211 205 200 190 nan nan nan nan nan nan 246 251 249 243 241 238 235 235 235 228 220 225 225 208 202 194 188 185 177 179 169 160 153 159 158 154 151 146 144 140 142 138 134 134
nan nan nan nan nan nan nan nan nan nan nan nan nan nan nan nan nan nan nan nan 228 228 214 213 226 217 216 216 211 215 235 242 242 231 225 224 222 217 212 214 217 216 217 217 213 194 185 184 187 nan nan nan 237 252 249 251 246 240 237 239 240 242 233 233 227 216 214 206 196 191 181 185 177 173 169 169 170 168 163 157 152 144 145 143 151 152
nan nan nan nan nan nan nan nan nan nan nan nan nan nan nan nan nan nan nan nan 230 213 213 218 229 227 224 218 210 212 236 237 240 240 230 222 222 228 220 212 217 219 220 222 221 208 189 187 193 200 209 nan 221 240 249 251 251 250 243 240 241 237 231 234 218 221 221 220 212 195 189 191 189 186 184 173 172 173 171 172 163 156 149 156 168 164
nan nan nan nan nan nan nan nan nan nan nan nan nan nan nan nan nan nan nan 200 201 216 209 214 226 233 230 231 217 234 250 248 234 228 222 216 219 241 228 219 220 223 223 221 221 214 195 196 198 203 208 218 218 223 249 262 259 256 253 258 259 249 248 236 223 212 219 229 224 210 201 194 198 195 196 185 181 180 182 176 173 171 168 155 165 169
nan nan nan nan nan nan nan nan nan nan nan nan nan nan nan nan nan nan nan nan 209 210 213 213 217 222 214 228 233 243 257 255 246 239 228 217 223 239 237 231 226 222 221 218 213 208 201 204 205 207 212 218 226 224 229 240 254 254 247 255 264 274 273 275 250 223 213 221 221 217 214 211 203 201 204 199 193 190 184 180 177 174 162 166 170 170
nan nan nan nan nan nan nan nan nan nan nan nan nan nan nan nan nan nan nan nan 220 221 226 220 213 222 217 234 232 229 247 256 258 243 234 227 220 224 235 231 225 219 212 210 208 209 212 215 210 204 206 213 219 223 226 229 225 235 240 241 241 249 252 258 275 269 249 233 227 221 217 213 212 209 209 209 207 199 190 184 184 178 175 157 172 168
nan nan nan nan nan nan nan nan nan nan nan nan nan nan nan nan nan nan nan nan 221 228 224 237 228 223 224 227 232 229 240 235 236 234 228 224 222 219 219 229 230 221 210 207 210 217 221 220 219 208 202 207 215 215 222 232 226 219 225 234 233 236 232 229 220 226 238 247 241 238 235 223 218 214 214 214 212 208 200 193 191 189 183 187 172 174
nan nan nan nan nan nan nan nan nan nan nan nan nan nan nan nan nan nan nan 203 213 226 231 nan nan 232 229 231 233 224 216 238 234 nan 233 nan 217 214 213 220 226 224 217 215 215 219 218 218 224 225 225 218 214 217 223 226 232 224 225 233 238 236 235 241 231 222 218 225 238 248 247 238 228 224 219 220 217 212 208 204 201 198 198 194 183 188
nan nan nan nan nan nan nan nan nan nan nan nan nan nan nan nan nan nan nan 206 215 213 222 219 233 232 230 226 220 227 243 244 nan nan nan nan 220 217 225 227 224 224 226 224 216 214 215 223 226 225 226 225 221 218 222 223 226 223 218 216 219 228 225 224 220 218 220 226 227 232 236 239 238 230 227 226 223 217 213 213 209 210 211 205 196 197
186 nan nan nan nan nan nan nan nan nan nan nan nan nan nan nan nan nan nan 214 219 219 225 220 221 226 224 229 224 227 nan nan nan nan nan nan 230 227 222 224 223 220 223 224 220 214 217 222 226 228 221 215 212 215 216 219 222 222 221 216 208 215 226 222 220 219 218 224 222 220 228 235 228 233 229 225 221 218 217 215 216 218 220 221 215 208
nan nan nan nan nan nan nan nan nan nan nan nan nan nan nan nan nan 212 211 206 218 207 219 230 234 229 nan 231 nan 223 nan nan nan nan nan nan nan 232 229 nan 220 220 219 221 221 221 220 218 220 220 219 214 213 217 220 222 224 230 236 241 237 218 209 221 222 222 219 222 226 228 228 227 228 223 224 229 219 214 216 215 216 219 222 229 228 225
nan nan nan nan nan nan nan nan nan nan nan nan nan nan nan nan 216 214 209 204 215 211 218 223 226 226 230 230 232 nan 240 nan nan nan nan nan nan nan 233 232 226 223 220 220 218 220 226 221 210 213 218 218 216 215 218 220 220 221 224 223 223 230 215 219 225 226 228 225 221 222 225 224 226 229 222 217 222 225 215 212 214 215 219 230 238 237
nan nan nan nan nan nan nan nan nan nan nan nan nan nan nan nan 207 214 215 213 219 221 223 nan 242 241 nan nan nan nan nan nan nan nan nan nan nan nan nan 238 236 228 223 222 220 221 226 228 220 212 216 220 220 216 217 218 221 223 225 224 224 230 230 215 210 220 231 229 229 227 227 226 223 227 231 234 227 217 223 219 210 208 211 221 233 247
nan nan nan nan nan nan nan nan nan nan nan nan nan nan nan nan 209 209 216 219 224 232 219 225 nan nan nan nan nan nan nan nan nan nan nan nan nan nan nan nan 240 234 227 225 225 227 230 231 229 224 221 221 218 213 214 218 219 220 221 225 228 233 232 230 218 211 216 222 226 225 224 226 226 218 224 233 238 238 221 223 225 216 212 213 209 232
nan nan nan nan nan nan nan nan nan nan nan nan nan nan nan nan nan nan 211 228 224 229 238 241 237 nan nan nan nan nan nan nan nan nan nan nan nan 241 243 242 240 233 228 228 228 230 233 236 234 229 225 223 221 221 223 227 226 218 216 219 224 229 230 233 237 235 230 228 230 229 228 231 234 233 225 225 237 241 235 217 213 217 218 223 225 217
nan nan nan nan nan nan nan nan nan nan nan nan nan nan nan 216 213 218 218 210 217 227 240 241 235 nan nan nan nan nan nan nan nan nan nan nan nan nan nan 247 245 238 231 228 227 229 230 233 237 236 232 229 229 229 231 232 231 228 222 218 222 221 220 221 224 225 226 231 240 244 242 239 238 240 239 237 234 243 240 223 210 214 217 222 224 228
nan nan nan nan nan nan nan nan nan nan nan nan nan nan 213 215 216 219 225 226 228 229 234 238 240 nan nan nan nan nan nan nan nan nan nan nan nan nan nan 243 244 242 237 232 229 228 230 233 236 240 240 236 235 235 232 230 235 237 232 223 224 225 225 226 228 227 228 227 227 232 235 238 241 241 238 230 224 235 245 241 225 226 230 223 219 217
nan nan nan nan nan nan nan nan nan nan nan nan nan nan 212 225 224 225 230 228 237 235 238 238 236 234 236 239 238 nan nan nan nan nan nan nan nan nan nan nan 240 239 237 233 230 230 231 234 237 239 243 241 238 239 238 237 238 243 242 234 226 230 235 239 235 230 229 230 228 228 230 231 234 236 233 229 231 239 248 251 246 236 233 232 226 224
nan nan nan nan nan nan nan nan nan nan nan nan nan nan nan 221 227 227 231 237 243 246 243 241 238 243 250 248 nan nan nan nan nan nan nan nan nan nan nan nan nan 240 238 234 232 231 231 233 236 239 240 241 240 239 241 243 243 245 248 250 245 240 240 244 247 245 240 238 237 234 235 235 236 236 235 236 240 243 249 249 246 239 233 231 229 228
nan nan nan nan nan nan nan nan nan nan nan nan nan nan nan 232 240 240 237 242 246 241 234 236 243 241 245 nan 252 nan nan nan nan nan nan nan nan nan nan nan nan 241 238 235 235 235 234 234 235 236 239 240 240 240 240 242 245 246 250 254 252 247 247 250 250 253 251 247 245 243 241 240 240 241 240 242 245 246 244 244 240 233 230 230 229 226
nan nan nan nan nan nan nan nan nan nan nan nan nan nan nan 239 238 240 238 239 237 237 242 242 241 241 241 246 251 250 248 nan nan nan nan nan nan nan nan nan nan nan 239 238 nan nan nan 241 241 nan nan nan nan 239 240 241 244 248 251 253 253 250 249 246 247 248 250 248 249 249 246 243 242 243 242 243 245 245 245 242 236 231 231 233 230 227
nan nan nan nan nan nan nan nan nan nan nan 218 209 215 216 231 239 240 232 229 237 245 249 246 243 244 245 245 247 249 nan nan nan nan nan nan nan nan nan nan nan nan nan nan nan nan nan nan nan nan nan nan nan nan nan nan nan nan nan nan 252 251 249 247 246 244 245 245 244 245 245 246 245 243 246 245 245 245 243 238 233 227 228 232 232 233
nan nan nan nan nan nan nan nan nan nan nan nan 215 215 214 225 237 246 240 232 237 241 244 243 243 242 244 245 246 247 nan nan nan nan nan nan nan nan nan nan nan nan nan nan nan nan nan nan nan nan nan nan nan nan nan nan nan nan nan nan nan nan nan 250 248 244 242 243 243 242 243 245 245 243 242 244 243 243 244 241 235 231 229 230 232 235
nan nan nan nan nan nan nan nan nan nan nan nan nan nan 214 220 224 235 239 231 231 239 248 254 251 247 246 248 251 250 nan nan nan nan nan nan nan nan nan nan nan nan nan nan nan nan nan nan nan nan nan nan nan nan nan nan nan nan nan nan nan nan nan nan nan nan 246 244 242 243 244 246 248 245 243 244 246 246 245 246 244 237 235 234 233 235
nan nan nan nan nan nan nan nan nan nan nan nan nan nan 222 231 236 230 232 233 225 237 249 258 255 250 250 251 251 251 nan nan nan nan nan nan nan nan nan nan nan nan nan nan nan nan nan nan nan nan nan nan nan nan nan nan nan nan nan nan nan nan nan nan nan nan nan nan 245 245 244 244 244 242 240 240 241 244 245 245 244 241 238 238 239 239
nan nan nan nan nan nan nan nan nan nan nan nan nan nan 223 228 235 234 237 232 229 237 250 258 262 262 254 251 nan nan nan nan nan nan nan nan nan nan nan nan nan nan nan nan nan nan nan nan nan nan nan nan nan nan nan nan nan nan nan nan nan nan nan nan nan nan nan nan nan nan 247 247 246 244 243 242 242 245 243 240 239 238 236 236 239 240
nan nan nan nan nan nan nan nan nan nan nan nan nan nan nan nan nan nan nan 237 235 239 242 252 258 256 255 252 250 nan nan nan nan nan nan nan nan nan nan nan nan nan nan nan nan nan nan nan nan nan nan nan nan nan nan nan nan nan nan nan nan nan nan nan nan nan nan nan nan nan nan nan nan nan 243 244 245 251 250 246 241 239 241 239 239 241
nan nan nan nan nan nan nan nan nan nan nan nan nan nan nan nan nan nan nan 236 238 244 245 253 252 250 252 250 245 244 nan nan nan nan nan nan nan nan nan nan nan nan nan nan nan nan nan nan nan nan nan nan nan nan nan nan nan nan nan nan nan nan nan nan nan nan nan nan nan nan nan nan nan nan nan nan 242 246 245 246 245 243 243 244 246 246
nan nan nan nan nan nan nan nan nan nan nan nan nan nan nan nan nan nan nan nan nan 243 244 241 249 248 250 245 247 251 nan nan nan nan nan nan nan nan nan nan nan nan nan nan nan nan nan nan nan nan nan nan nan nan nan nan nan nan nan nan nan nan nan nan nan nan nan nan nan nan nan nan nan nan nan nan nan nan nan nan 244 244 245 246 246 246
nan nan nan nan nan nan nan nan nan nan nan nan nan nan nan nan nan nan nan nan 234 241 244 245 243 251 256 256 253 nan nan nan nan nan nan nan nan nan nan nan nan nan nan nan nan nan nan nan nan nan nan nan nan nan nan nan nan nan nan nan nan nan nan nan nan nan nan nan nan nan nan nan nan nan nan nan nan nan nan nan nan nan nan 247 246 246
nan nan nan nan nan nan nan nan nan nan nan nan nan nan nan nan nan nan nan nan 245 238 240 nan nan nan nan nan nan nan nan nan nan nan nan nan nan nan nan nan nan nan nan nan nan nan nan nan nan nan nan nan nan nan nan nan nan nan nan nan nan nan nan nan nan nan nan nan nan nan nan nan nan nan nan nan nan nan nan nan nan nan nan nan nan nan
nan nan nan nan nan 228 nan nan nan nan nan nan nan nan nan nan nan nan nan nan nan nan nan nan nan nan nan nan nan nan nan nan nan nan nan nan nan nan nan nan nan nan nan nan nan nan nan nan nan nan nan nan nan nan nan nan nan nan nan nan nan nan nan nan nan nan nan nan nan nan nan nan nan nan nan nan nan nan nan nan nan nan nan nan nan nan
nan nan nan nan nan nan nan nan nan nan nan nan nan nan nan nan nan nan nan nan nan nan nan nan nan nan nan nan nan nan nan nan nan nan nan nan nan nan nan nan nan nan nan nan nan nan nan nan nan nan nan nan nan nan nan nan nan nan nan nan nan nan nan nan nan nan nan nan nan nan nan nan nan nan nan nan nan nan nan nan nan nan nan nan nan nan
nan nan nan nan nan nan nan nan nan nan nan nan nan nan nan nan nan nan nan nan nan nan nan nan nan nan nan nan nan nan nan nan nan nan nan nan nan nan nan nan nan nan nan nan nan nan nan nan nan nan nan nan nan nan nan nan nan nan nan nan nan nan nan nan nan nan nan nan nan nan nan nan nan nan nan nan nan nan nan nan nan nan nan nan nan nan
nan nan nan nan nan nan nan nan nan nan nan nan nan nan nan nan nan nan nan nan nan nan nan nan nan nan nan nan nan nan nan nan nan nan nan nan nan nan nan nan nan nan nan nan nan nan nan nan nan nan nan nan nan nan nan nan nan nan nan nan nan nan nan nan nan nan nan nan nan nan nan nan nan nan nan nan nan nan nan nan nan nan nan nan nan nan
nan nan nan nan nan nan nan nan nan nan nan nan nan nan nan nan nan nan nan nan nan nan nan nan nan nan nan nan nan nan nan nan nan nan nan nan nan nan nan nan nan nan nan nan nan nan nan nan nan nan nan nan nan nan nan nan nan nan nan nan nan nan nan nan nan nan nan nan nan nan nan nan nan nan nan nan nan nan nan nan nan nan nan nan nan nan
nan nan nan nan nan nan nan nan nan nan nan nan nan nan nan nan nan nan nan nan nan nan nan nan nan nan nan nan nan nan nan nan nan nan nan nan nan nan nan nan nan nan nan nan nan nan nan nan nan nan nan nan nan nan nan nan nan nan nan nan nan nan nan nan nan nan nan nan nan nan nan nan nan nan nan nan nan nan nan nan nan nan nan nan nan nan